Location: Artiguedieu
(43.5000°N, 0.5454°E)
Time: 21:04:13
(UTC+00:00)

Transit 2A - Pass Details

Date: 26 July 2021
Orbit: 594 x 964 km, 66.7° (Epoch: 28 September)

Event Time Altitude Azimuth Distance (km) Brightness Sun altitude
Rises 13:53:45 0° 340° (NNW) 3,135 9.1 56.7°
Reaches altitude 10° 13:58:11 10° 17° (NNE) 2,317 8.3 56.0°
Maximum altitude 13:59:36 11° 32° (NNE) 2,282 8.3 55.8°
Drops below altitude 10° 14:01:02 10° 48° (NE) 2,383 8.3 55.6°
Sets 14:05:50 0° 83° (E) 3,423 9.1 54.9°
